Bloomington, IN

10:00 AM EST on January 22, 2018 (GMT -0500)
Monroe County

Weather History for KBMG - May, 2012

Change the Weather History Date:

Thursday, May 24, 2012

  Actual Average Record
Temperature  
Mean Temperature 73 °F 65 °F  
Max Temperature 86 °F 76 °F 87 °F (2007)
Min Temperature 60 °F 54 °F 41 °F (2003)
Degree Days  
Heating Degree Days 0 3  
Month to date heating degree days 33 121  
Since 1 July heating degree days 4135 5235  
Cooling Degree Days 8 3  
Month to date cooling degree days 92 41  
Year to date cooling degree days 140 60  
Growing Degree Days 22 (Base 50)    
Moisture  
Dew Point 55 °F    
Average Humidity 61    
Maximum Humidity 90    
Minimum Humidity 32    
Precipitation  
Precipitation 0.00 in 0.15 in 0.62 in (2006)
Month to date precipitation 1.97 4.09  
Year to date precipitation 11.42 18.74  
Sea Level Pressure  
Sea Level Pressure 29.82 in    
Wind  
Wind Speed 9 mph (SSE)    
Max Wind Speed 20 mph    
Max Gust Speed 28 mph    
Visibility 9 miles    
Events      
T = Trace of Precipitation, MM = Missing Value Source: NWS Daily Summary

Daily Weather History Graph

Daily Weather History Graph

Search for Another Location

Airport or City:

Trip Planner

Search our weather history database for the weather conditions in past years. The results will help you decide how hot, cold, wet, or windy it might be!

Date:

Astronomy

May. 24, 2012 Rise Set
Actual Time 6:26 AM EDT 9:01 PM EDT
Civil Twilight 5:55 AM EDT 9:32 PM EDT
Nautical Twilight 5:16 AM EDT 10:10 PM EDT
Astronomical Twilight 4:33 AM EDT 10:54 PM EDT
Moon 9:25 AM EDT (5/24) No Moon Set
Length of Visible Light 15h 37m
Length of Day
14h 34m
Waxing Crescent, 12% of the Moon is Illuminated
May 24
Waxing Crescent
May 28
First Quarter
Jun 4
Full
Jun 11
Last Quarter
Jun 19
New

Hourly Weather History & Observations

Time (EDT) Temp. Heat Index Dew Point Humidity Pressure Visibility Wind Dir Wind Speed Gust Speed Precip Events Conditions
12:53 AM 62.1 °F - 55.0 °F 78% 29.82 in 9.0 mi SE 4.6 mph - N/A   Clear
1:53 AM 64.0 °F - 55.9 °F 75% 29.82 in 10.0 mi SSE 4.6 mph - N/A   Clear
2:53 AM 62.1 °F - 57.0 °F 84% 29.82 in 10.0 mi Calm Calm - N/A   Scattered Clouds
3:53 AM 62.1 °F - 57.0 °F 84% 29.82 in 9.0 mi SSE 4.6 mph - N/A   Clear
4:53 AM 62.1 °F - 57.9 °F 86% 29.82 in 8.0 mi SSE 4.6 mph - N/A   Clear
5:53 AM 61.0 °F - 57.9 °F 90% 29.82 in 7.0 mi SE 5.8 mph - N/A   Clear
6:53 AM 61.0 °F - 57.9 °F 90% 29.83 in 4.0 mi SSE 5.8 mph - N/A   Clear
7:53 AM 64.0 °F - 59.0 °F 84% 29.86 in 5.0 mi SSE 8.1 mph - N/A   Haze
8:53 AM 68.0 °F - 60.1 °F 76% 29.89 in 8.0 mi SSE 5.8 mph - N/A   Clear
9:53 AM 73.9 °F - 60.1 °F 62% 29.89 in 10.0 mi SE 6.9 mph - N/A   Clear
10:53 AM 78.1 °F - 55.9 °F 46% 29.87 in 10.0 mi South 8.1 mph 19.6 mph N/A   Clear
11:53 AM 80.1 °F 80.0 °F 54.0 °F 40% 29.85 in 10.0 mi South 12.7 mph 21.9 mph N/A   Clear
12:53 PM 82.0 °F - 52.0 °F 35% 29.84 in 10.0 mi South 11.5 mph 25.3 mph N/A   Clear
1:53 PM 82.9 °F - 52.0 °F 34% 29.83 in 10.0 mi South 16.1 mph 24.2 mph N/A   Clear
2:53 PM 84.0 °F 82.5 °F 53.1 °F 34% 29.81 in 10.0 mi SSE 16.1 mph 23.0 mph N/A   Clear
3:53 PM 84.0 °F - 51.1 °F 32% 29.80 in 10.0 mi South 12.7 mph - N/A   Clear
4:53 PM 84.9 °F - 52.0 °F 32% 29.78 in 10.0 mi SSW 11.5 mph - N/A   Clear
5:53 PM 84.0 °F 82.5 °F 53.1 °F 34% 29.76 in 10.0 mi South 15.0 mph 20.7 mph N/A   Clear
6:53 PM 82.9 °F 81.9 °F 54.0 °F 37% 29.76 in 10.0 mi South 12.7 mph - N/A   Clear
7:53 PM 80.1 °F 80.0 °F 54.0 °F 40% 29.75 in 10.0 mi SSE 9.2 mph - N/A   Clear
8:53 PM 78.1 °F - 55.0 °F 45% 29.75 in 10.0 mi SSE 9.2 mph - N/A   Clear
9:53 PM 75.9 °F - 55.0 °F 48% 29.76 in 10.0 mi SSE 10.4 mph - N/A   Clear
11:53 PM 71.1 °F - 55.9 °F 59% 29.82 in 10.0 mi South 3.5 mph - N/A   Clear